TimeEST,TemperatureF,Dew PointF,Humidity,Sea Level PressureIn,VisibilityMPH,Wind Direction,Wind SpeedMPH,Gust SpeedMPH,PrecipitationIn,Events,Conditions,WindDirDegrees,DateUTC
12:10 AM,32.0,32.0,100,29.82,1.5,East,3.5,-,0.03,Snow,Light Snow,90,2012-12-29 05:10:00
12:33 AM,32.0,32.0,100,29.80,1.2,East,3.5,-,0.04,Snow,Light Snow,80,2012-12-29 05:33:00
12:42 AM,32.0,30.2,93,29.79,0.8,ENE,3.5,-,0.05,Snow,Light Snow,70,2012-12-29 05:42:00
12:51 AM,32.0,30.9,96,29.79,1.0,NE,3.5,-,0.06,Snow,Light Snow,50,2012-12-29 05:51:00
1:17 AM,32.0,30.2,93,29.75,3.0,NE,4.6,-,0.01,,Overcast,50,2012-12-29 06:17:00
1:31 AM,32.0,30.2,93,29.75,3.0,NE,3.5,-,0.02,Snow,Light Snow,40,2012-12-29 06:31:00
1:37 AM,32.0,30.2,93,29.74,1.8,NE,3.5,-,0.02,Snow,Light Snow,50,2012-12-29 06:37:00
1:51 AM,32.0,30.9,96,29.75,1.2,NNE,4.6,-,0.04,Snow,Light Snow,20,2012-12-29 06:51:00
2:25 AM,32.0,30.2,93,29.73,2.0,NE,3.5,-,0.05,Snow,Light Snow,40,2012-12-29 07:25:00
2:34 AM,32.0,32.0,100,29.73,1.8,East,3.5,-,0.07,,Overcast,100,2012-12-29 07:34:00
2:46 AM,32.0,30.2,93,29.72,3.0,NNE,4.6,-,0.08,,Overcast,30,2012-12-29 07:46:00
2:49 AM,32.0,30.2,93,29.72,1.8,NNE,3.5,-,0.09,,Overcast,20,2012-12-29 07:49:00
2:51 AM,32.0,30.2,93,29.71,1.0,NNE,3.5,-,N/A,,Overcast,30,2012-12-29 07:51:00
2:58 AM,32.0,32.0,100,29.72,0.5,Calm,Calm,-,0.01,Fog,Fog,0,2012-12-29 07:58:00
3:05 AM,32.0,32.0,100,29.72,0.8,Calm,Calm,-,0.01,,Mist,0,2012-12-29 08:05:00
3:07 AM,32.0,32.0,100,29.72,1.0,Calm,Calm,-,0.01,Rain,Light Freezing Rain,0,2012-12-29 08:07:00
3:15 AM,32.0,32.0,100,29.72,2.5,Calm,Calm,-,0.02,Rain,Light Freezing Rain,0,2012-12-29 08:15:00
3:25 AM,32.0,32.0,100,29.71,2.0,Calm,Calm,-,0.03,Rain,Light Freezing Rain,0,2012-12-29 08:25:00
3:41 AM,32.0,32.0,100,29.70,4.0,Calm,Calm,-,0.04,Rain,Light Freezing Rain,0,2012-12-29 08:41:00
3:51 AM,32.0,32.0,100,29.71,2.5,Calm,Calm,-,0.04,Snow,Light Snow,0,2012-12-29 08:51:00
4:02 AM,32.0,30.2,93,29.69,1.2,Calm,Calm,-,0.01,Snow,Light Snow,0,2012-12-29 09:02:00
4:13 AM,32.0,30.2,93,29.69,0.5,Calm,Calm,-,0.02,Fog-Snow,Snow,0,2012-12-29 09:13:00
4:34 AM,32.0,30.2,93,29.69,0.2,Calm,Calm,-,0.03,Fog-Snow,Light Snow,0,2012-12-29 09:34:00
4:51 AM,32.0,32.0,100,29.68,0.5,Calm,Calm,-,N/A,Fog-Snow,Light Snow,0,2012-12-29 09:51:00
5:30 AM,32.0,32.0,100,29.67,2.0,Calm,Calm,-,0.00,,Overcast,0,2012-12-29 10:30:00
5:39 AM,32.0,30.2,93,29.67,4.0,Calm,Calm,-,0.01,,Overcast,0,2012-12-29 10:39:00
5:51 AM,32.0,30.9,96,29.68,3.0,SSE,3.5,-,0.01,Snow,Light Snow,160,2012-12-29 10:51:00
6:12 AM,32.0,32.0,100,29.68,2.0,WSW,3.5,-,0.00,,Overcast,250,2012-12-29 11:12:00
6:20 AM,32.0,30.2,93,29.68,1.5,SW,3.5,-,0.00,Snow,Light Snow,220,2012-12-29 11:20:00
6:51 AM,32.0,32.0,100,29.70,1.0,Calm,Calm,-,0.00,Snow,Light Snow,0,2012-12-29 11:51:00
7:07 AM,32.0,32.0,100,29.68,2.5,SSW,4.6,-,0.01,Snow,Light Snow,210,2012-12-29 12:07:00
7:23 AM,32.0,32.0,100,29.69,3.0,SSW,4.6,-,0.01,Snow,Light Snow,210,2012-12-29 12:23:00
7:51 AM,33.1,32.0,96,29.71,6.0,SW,6.9,-,0.01,Rain,Light Rain,220,2012-12-29 12:51:00
8:51 AM,34.0,32.0,92,29.73,10.0,WSW,11.5,-,0.00,Rain,Light Rain,240,2012-12-29 13:51:00
9:36 AM,33.8,32.0,93,29.74,5.0,WSW,9.2,-,0.00,,Overcast,250,2012-12-29 14:36:00
9:51 AM,34.0,32.0,92,29.77,10.0,WSW,10.4,-,0.00,,Overcast,250,2012-12-29 14:51:00
10:51 AM,34.0,30.9,89,29.82,10.0,West,8.1,21.9,N/A,,Overcast,270,2012-12-29 15:51:00
11:51 AM,34.0,30.9,89,29.83,10.0,West,12.7,18.4,N/A,,Overcast,260,2012-12-29 16:51:00
12:51 PM,33.1,30.0,89,29.85,6.0,West,8.1,19.6,0.00,,Overcast,270,2012-12-29 17:51:00
1:51 PM,33.1,30.0,89,29.86,5.0,West,9.2,-,0.00,,Overcast,280,2012-12-29 18:51:00
2:51 PM,32.0,28.9,88,29.89,5.0,West,8.1,18.4,0.01,,Overcast,260,2012-12-29 19:51:00
3:51 PM,32.0,28.0,85,29.93,5.0,West,11.5,23.0,0.00,,Overcast,270,2012-12-29 20:51:00
4:51 PM,30.9,28.0,89,29.96,4.0,West,9.2,-,0.00,,Overcast,260,2012-12-29 21:51:00
5:51 PM,30.9,27.0,85,29.99,6.0,Variable,5.8,18.4,0.00,Snow,Light Snow,0,2012-12-29 22:51:00
6:51 PM,30.9,27.0,85,30.02,4.0,West,9.2,-,0.00,Snow,Light Snow,270,2012-12-29 23:51:00
7:51 PM,30.9,28.0,89,30.04,5.0,Variable,6.9,-,0.00,,Overcast,0,2012-12-30 00:51:00
8:51 PM,30.9,28.0,89,30.06,6.0,West,8.1,-,0.00,Snow,Light Snow,260,2012-12-30 01:51:00
9:51 PM,30.9,26.1,82,30.09,8.0,West,13.8,27.6,0.00,Snow,Light Snow,270,2012-12-30 02:51:00
10:51 PM,30.0,25.0,82,30.13,7.0,WSW,11.5,17.3,0.00,Snow,Light Snow,250,2012-12-30 03:51:00
11:51 PM,28.9,24.1,82,30.17,7.0,West,9.2,16.1,0.00,Snow,Light Snow,270,2012-12-30 04:51:00